www.pogodaiklimat.ru
ПОГОДА в Любешове
Время
(UTC), дата
00 23.05
03 23.05
06 23.05
09 23.05
12 23.05
15 23.05
18 23.05
21 23.05
00 24.05
03 24.05
06 24.05
09 24.05
12 24.05
15 24.05
18 24.05
21 24.05
00 25.05
03 25.05
06 25.05
09 25.05
12 25.05
15 25.05
18 25.05
21 25.05
00 26.05
03 26.05
06 26.05
09 26.05
12 26.05
15 26.05
18 26.05
21 26.05
00 27.05
03 27.05
06 27.05
09 27.05
12 27.05
12 27.05
12 27.05
12 27.05
12 27.05
12 27.05
12 27.05
12 27.05
12 27.05
12 27.05
12 27.05
12 27.05
12 27.05
12 27.05
12 27.05
12 27.05
12 27.05
12 27.05
12 27.05
12 27.05
12 27.05
12 27.05
12 27.05
12 27.05
12 27.05
12 27.05
12 27.05
12 27.05
12 27.05
12 27.05
12 27.05
12 27.05
12 27.05
15 27.05
18 27.05
21 27.05
00 28.05
03 28.05
06 28.05
09 28.05
12 28.05
15 28.05
18 28.05
21 28.05
00 29.05
03 29.05
06 29.05
09 29.05
12 29.05
15 29.05
18 29.05
21 29.05
Ветер
(напр.,м/с)
Видим. Явления Облачность Т
(С)
Тd
(С)
f
(%)
Тe
(С)
Тes
(С)
Комфортность P
(гПа)
Po
(гПа)
Тmin
(С)
Tmax
(С)
R
(мм)
R24
(мм)
S
(см)
СЗ 2 10 км ясно +4.2 +2.7 90 +1 +1 1023.0 1023.0
З 2 10 км 5/5 600 м
[Sc]
+4.4 +2.9 90 +2 +2 1023.0 1023.0
СЗ 3 10 км ясно +11.0 +5.3 68 +9 +9 1023.0 1023.0 +3.8
С 3 10 км 6/6 600 м
[Cu Sc]
+16.2 +2.2 39 +16 +19 1022.0 1022.0
С 2 10 км 3/3 1000 м
[Sc]
+19.0 +1.0 30 +20 +33 опасность
простуды
1021.0 1021.0
С 2 10 км 3 балла +19.2 -0.8 26 +20 +27 1020.0 1020.0
СВ 1 10 км 9/0
[Ac As]
+15.8 +6.0 52 +17 +17 1020.0 1020.0 +19.6
В 2 10 км 10 баллов +11.2 +2.7 56 +10 +10 1020.0 1020.0
ЮВ 2 10 км 9/0
[Ac und]
+9.5 +3.2 65 +8 +8 1020.0 1020.0
ЮВ 2 10 км 9/9 1000 м
[Sc]
+9.2 +3.2 66 +8 +8 1018.0 1018.0
ЮЗ 2 10 км 10/6 1000 м
[Sc As trans]
+12.0 +4.7 61 +11 +11 1018.0 1018.0 +8.8
СЗ 2 4000 м слаб. дождь 10/8 600 м
[Frnb As op]
+11.0 +8.0 82 +10 +10 1019.0 1019.0
СВ 2 4000 м слаб. дождь 10/8 300 м
[Frnb As op]
+11.1 +9.7 91 +10 +10 1019.0 1019.0
штиль 0 4000 м слаб. ливневой дождь 10/10 300 м
[Cb cap]
+11.3 +9.6 89 +11 +11 1019.0 1019.0
штиль 0 10 км {ливн. осадки, дождь} 9/9 600 м
[Sc diur, vesp]
+10.4 +8.8 90 +10 +10 1019.0 1019.0 +12.5 7
штиль 0 10 км местами туман поземный ясно +8.4 +7.6 95 +7 +7 1020.0 1020.0
СЗ 1 1000 м дымка ясно +6.9 +6.8 99 +6 +6 1021.0 1021.0
штиль 0 500 м туман ?/? +5.0 +5.0 100 +4 +4 1021.0 1021.0
штиль 0 500 м туман ?/? +8.0 +8.0 100 +7 +7 1022.0 1022.0 +5.0 0.4
В 1 10 км в посл. час гроза {туман} 5/5 600 м
[Cb cap]
+14.6 +8.8 68 +15 +20 1022.0 1022.0
С 3 10 км {туман, ливн. осадки} 4/3 600 м
[Cb calv Ci fib]
+15.4 +7.7 60 +15 +26 опасность
простуды
1022.0 1022.0
С 2 10 км 8/3 600 м
[Cb calv Ci sp]
+16.2 +5.5 49 +16 +16 1022.0 1022.0
СВ 1 10 км {ливн. осадки} 8/8 600 м
[Sc]
+13.2 +8.9 75 +13 +13 1024.0 1024.0 +16.9 1
СЗ 1 10 км 5/5 600 м
[Sc]
+11.2 +8.2 82 +11 +11 1024.0 1024.0
штиль 0 10 км ясно +8.6 +6.2 85 +8 +8 1025.0 1025.0
СЗ 1 10 км 10/0
[Ac und]
+8.2 +6.8 91 +7 +7 1025.0 1025.0
С 1 10 км в посл. час ливневой дождь 10/10 300 м
[Cb calv]
+10.1 +9.3 95 +10 +10 1026.0 1026.0 +7.5 0.7
СВ 4 10 км слаб. ливневой дождь 10/10 300 м
[Cb calv]
+12.6 +9.4 81 +11 +11 1027.0 1027.0
СВ 2 10 км слаб. ливневой дождь 10/10 300 м
[Cb calv]
+13.6 +10.0 79 +13 +13 1027.0 1027.0
СВ 2 10 км {ливн. осадки} 8/4 600 м
[Cb calv Ci]
+16.9 +9.3 61 +17 +17 1026.0 1026.0
штиль 0 10 км {ливн. осадки} 8/8 600 м
[Sc diur, vesp Ci sp]
+16.4 +11.1 71 +16 +16 1026.0 1026.0 +17.2 0.4
штиль 0 10 км {ливн. осадки} ясно +12.4 +9.9 85 +12 +12 1027.0 1027.0
штиль 0 10 км {ливн. осадки} 1/1 600 м
[Cb calv]
+10.5 +8.8 89 +10 +10 1027.0 1027.0
СЗ 2 10 км 9/6 600 м
[Cb calv Ci]
+9.0 +7.8 92 +7 +7 1026.0 1026.0
СЗ 3 10 км 9/4 600 м
[Cb calv Ac und]
+13.0 +9.1 77 +12 +12 1026.0 1026.0 +8.7 0.0
С 1 10 км 8/4 600 м
[Cu Sc Cs]
+16.8 +8.5 58 +18 +18 1026.0 1026.0
СЗ 2 10 км {ливн. осадки} 10/6 600 м
[Cb cap Ci ing]
+16.2 +7.4 56 +16 +16 1024.0 1024.0
СЗ 2 10 км {ливн. осадки} 10/6 600 м
[Cb cap Ci ing]
+16.2 +7.4 56 +16 +16 1024.0 1024.0
СЗ 2 10 км {ливн. осадки} 10/6 600 м
[Cb cap Ci ing]
+16.2 +7.4 56 +16 +16 1024.0 1024.0
СЗ 2 10 км {ливн. осадки} 10/6 600 м
[Cb cap Ci ing]
+16.2 +7.4 56 +16 +16 1024.0 1024.0
СЗ 2 10 км {ливн. осадки} 10/6 600 м
[Cb cap Ci ing]
+16.2 +7.4 56 +16 +16 1024.0 1024.0
СЗ 2 10 км 10 баллов +16.2 +7.4 56 +16 +16 1024.0 1024.0
СЗ 2 10 км {ливн. осадки} 10/6 600 м
[Cb cap Ci ing]
+16.2 +7.4 56 +16 +16 1024.0 1024.0
СЗ 2 10 км {ливн. осадки} 10/6 600 м
[Cb cap Ci ing]
+16.2 +7.4 56 +16 +16 1024.0 1024.0
СЗ 2 10 км {ливн. осадки} 10/6 600 м
[Cb cap Ci ing]
+16.2 +7.4 56 +16 +16 1024.0 1024.0
СЗ 2 10 км {ливн. осадки} 10/6 600 м
[Cb cap Ci ing]
+16.2 +7.4 56 +16 +16 1024.0 1024.0
СЗ 2 10 км {ливн. осадки} 10/6 600 м
[Cb cap Ci ing]
+16.2 +7.4 56 +16 +16 1024.0 1024.0
СЗ 2 10 км {ливн. осадки} 10/6 600 м
[Cb cap Ci ing]
+16.2 +7.4 56 +16 +16 1024.0 1024.0
СЗ 2 10 км {ливн. осадки} 10/6 600 м
[Cb cap Ci ing]
+16.2 +7.4 56 +16 +16 1024.0 1024.0
СЗ 2 10 км {ливн. осадки} 10/6 600 м
[Cb cap Ci ing]
+16.2 +7.4 56 +16 +16 1024.0 1024.0
СЗ 2 10 км {ливн. осадки} 10/6 600 м
[Cb cap Ci ing]
+16.2 +7.4 56 +16 +16 1024.0 1024.0
СЗ 2 10 км {ливн. осадки} 10/6 600 м
[Cb cap Ci ing]
+16.2 +7.4 56 +16 +16 1024.0 1024.0
СЗ 2 10 км {ливн. осадки} 10/6 600 м
[Cb cap Ci ing]
+16.2 +7.4 56 +16 +16 1024.0 1024.0
СЗ 2 10 км {ливн. осадки} 10/6 600 м
[Cb cap Ci ing]
+16.2 +7.4 56 +16 +16 1024.0 1024.0
СЗ 2 10 км {ливн. осадки} 10/6 600 м
[Cb cap Ci ing]
+16.2 +7.4 56 +16 +16 1024.0 1024.0
СЗ 2 10 км {ливн. осадки} 10/6 600 м
[Cb cap Ci ing]
+16.2 +7.4 56 +16 +16 1024.0 1024.0
СЗ 2 10 км {ливн. осадки} 10/6 600 м
[Cb cap Ci ing]
+16.2 +7.4 56 +16 +16 1024.0 1024.0
СЗ 2 10 км {ливн. осадки} 10/6 600 м
[Cb cap Ci ing]
+16.2 +7.4 56 +16 +16 1024.0 1024.0
СЗ 2 10 км {ливн. осадки} 10/6 600 м
[Cb cap Ci ing]
+16.2 +7.4 56 +16 +16 1024.0 1024.0
СЗ 2 10 км {ливн. осадки} 10/6 600 м
[Cb cap Ci ing]
+16.2 +7.4 56 +16 +16 1024.0 1024.0
СЗ 2 10 км {ливн. осадки} 10/6 600 м
[Cb cap Ci ing]
+16.2 +7.4 56 +16 +16 1024.0 1024.0
СЗ 2 10 км {ливн. осадки} 10/6 600 м
[Cb cap Ci ing]
+16.2 +7.4 56 +16 +16 1024.0 1024.0
СЗ 2 10 км {ливн. осадки} 10/6 600 м
[Cb cap Ci ing]
+16.2 +7.4 56 +16 +16 1024.0 1024.0
СЗ 2 10 км {ливн. осадки} 10/6 600 м
[Cb cap Ci ing]
+16.2 +7.4 56 +16 +16 1024.0 1024.0
СЗ 2 10 км {ливн. осадки} 10/6 600 м
[Cb cap Ci ing]
+16.2 +7.4 56 +16 +16 1024.0 1024.0
СЗ 2 10 км {ливн. осадки} 10/6 600 м
[Cb cap Ci ing]
+16.2 +7.4 56 +16 +16 1024.0 1024.0
СЗ 2 10 км {ливн. осадки} 10/6 600 м
[Cb cap Ci ing]
+16.2 +7.4 56 +16 +16 1024.0 1024.0
СЗ 2 10 км {ливн. осадки} 10/6 600 м
[Cb cap Ci ing]
+16.2 +7.4 56 +16 +16 1024.0 1024.0
СЗ 2 10 км {ливн. осадки} 10/6 600 м
[Cb cap Ci ing]
+16.2 +7.4 56 +16 +16 1024.0 1024.0
ЮВ 2 10 км 8/8 600 м
[Cb cap]
+16.6 +7.0 53 +17 +17 1024.0 1024.0
З 2 10 км 8/4 600 м
[Cb calv Cc]
+14.6 +9.0 69 +14 +14 1024.0 1024.0 +20.5 0.0
СЗ 1 10 км 9/0
[Ac lent]
+11.3 +9.0 86 +11 +11 1024.0 1024.0
штиль 0 10 км 8/0
[Ci]
+10.2 +8.6 90 +9 +9 1023.0 1023.0
штиль 0 10 км 4/1 600 м
[Cb calv Ci]
+7.3 +6.2 93 +6 +6 1023.0 1023.0
штиль 0 10 км 3/0
[Cc]
+15.6 +9.3 66 +15 +15 1022.0 1022.0 +7.2
С 1 10 км 8/6 600 м
[Cu Sc Ci fib]
+18.8 +6.9 46 +20 +20 1021.0 1021.0
СВ 2 4000 м слаб. ливневой дождь 9/9 600 м
[Cb calv]
+18.6 +8.0 50 +20 +20 1019.0 1019.0
С 2 10 км 3 балла +20.6 +7.9 44 +22 +29 комфорт 1018.0 1018.0
СВ 1 10 км {ливн. осадки} 4/4 600 м
[Cb calv]
+17.8 +8.1 53 +19 +19 1018.0 1018.0 +21.5 0.0
СЗ 2 10 км 8/8 600 м
[Sc]
+14.2 +7.7 65 +14 +14 1018.0 1018.0
СЗ 3 10 км 5/5 600 м
[Sc]
+11.7 +7.0 73 +10 +10 1017.0 1017.0
С 3 10 км 9/9 600 м
[Sc]
+12.2 +8.1 76 +11 +11 1017.0 1017.0
СЗ 5 10 км 9/9 600 м
[Sc]
+12.5 +8.2 75 +10 +10 1017.0 1017.0 +11.5
С 5 10 км 10 баллов +17.2 +6.7 50 +17 +17 1015.0 1015.0
С 4 10 км 10 баллов +18.2 +5.4 43 +18 +18 1015.0 1015.0
С 3 10 км 10 баллов +14.0 +8.8 71 +13 +13 1016.0 1016.0
СЗ 3 4000 м слаб. дождь 10/10 300 м
[Frnb Ns]
+11.8 +9.4 85 +10 +10 1016.0 1016.0 +19.0 1
С 3 10 км 10 баллов +12.1 +8.8 80 +11 +11 1014.0 1014.0
Местоположение метеостанции Любешов (Волынская область, Украина): широта 51.67 долгота 25.27 высота над уровнем моря 152 м.
В архиве по умолчанию представлена погода в Любешове за последнюю неделю. Архивные данные за месяц целиком и за предыдущие месяцы, начиная с января 2011 года, Вы можете получить, выбрав интересующий диапазон дат из раскрывающегося списка и нажав кнопку "Найти!".
*Определитесь, кто Вы:
Внимание! Время в таблицах - всемирное. Для получения местного времени необходимо прибавить поправку, которая равна 2 ч.
Смотрите также архив погоды в соседних городах и на ближайших метеорологических станциях:
Партнеры нашего сайта:      
Пояснения к столбцам:
  • Ветер - указаны скорость ветра в м/с - средняя за 10 мин, порывы в срок и между сроками (в фигурных скобках) и направление, откуда дует ветер: С - северный,
  • СВ - северо-восточный, В - восточный, ЮВ - юго-восточный, Ю - южный, ЮЗ - юго-западный, З - западный, СЗ - северо-западный.
  • Видимость - горизонтальная дальность видимости в метрах или километрах. При видимости от 1 до 10 км при отсутствии осадков обычно наблюдается дымка, при ухудшении видимости до 1 км и менее - туман. В сухую погоду видимость может ухудшаться дымом, пылью или мглою.
  • Явления - указаны атмосферные явления, наблюдавшиеся в срок или в последний час перед сроком; фигурными скобками обозначены явления, наблюдавшиеся между сроками (за 1-3 часа до срока); квадратными скобками обозначены град или гололедные отложения с указанием их диаметра в мм.
  • Облачность - указаны через наклонную черту общая и нижняя облачность в баллах и высота нижней границы облаков в метрах; квадратными скобками обозначены формы облаков: Ci - перистые, Cs - перисто-слоистые, Cc - перисто-кучевые, Ac - высококучевые, As - высокослоистые, Sc - слоисто-кучевые, Ns - слоисто-дождевые, Cu - кучевые, Cb - кучево-дождевые. Подробнее классификацию облаков см. в Атласе облаков (PDF).
  • T - Температура воздуха - температура, измеренная на высоте 2 м над землей.
  • Td - Температура точки росы - температура, при понижении до которой содержащийся в воздухе водяной пар достигнет насыщения.
  • f - Относительная влажность воздуха - влажноcть воздуха, измеренная на высоте 2 м над землей.
  • Te - Эффективная температура - температура, которую ощущает одетый по сезону человек в тени. Характеристика душности погоды. При расчете учитывается влияние влажности воздуха и скорости ветра на теплоощущения человека.
  • Tes - Эффективная температура на солнце - температура, которую ощущает человек, с поправкой на солнечный нагрев. Характеристика знойности погоды. Зависит от высоты солнца над горизонтом, облачности и скорости ветра. Ночью, в пасмурную погоду, а также при ветре 12 м/с и более поправка равна нулю.
  • P - Атмосферное давление - приведенное к уровню моря атмосферное давление.
  • Po - Атмосферное давление - измеренное на уровне метеостанции атмосферное давление.
  • Tmin - Минимальная температура - минимум температуры воздуха на высоте 2 м над землей.
  • Tmax - Максимальная температура - максимум температуры воздуха на высоте 2 м над землей.
  • R - Количество осадков - Количество выпавших осадков за период времени, мм. При наведении курсора мыши на число - период времени, за который выпало указанное количество осадков.
  • R24 - Количество осадков - Количество выпавших осадков за 24 часа, мм.
  • S - Снежный покров - Высота снежного покрова, см. При наведении курсора мыши на число - состояние снежного покрова и степень покрытия местности в баллах.